Wind_Speed
57 54 51 49 54 53 55 54 48 50 49 45 40 35 37 37 38 38 38 43 42 41 40 39 41 40 39 42 43 43 40 35 44 43 33 33 34 34 39 42 44 44 48 51 50 56 58 60 56
64 60 59 56 55 58 62 58 57 56 51 48 45 41 41 42 38 40 39 41 41 41 38 43 45 40 36 37 37 39 37 41 42 40 32 33 35 36 41 43 46 47 49 51 60 60 61 60 62
69 67 61 54 57 67 66 65 61 56 52 52 47 47 47 43 41 41 44 45 44 44 42 41 38 38 38 38 40 34 33 28 32 35 38 38 36 40 45 47 52 53 56 56 61 60 60 61 59
79 74 66 60 63 71 70 67 66 60 55 51 54 51 47 48 46 46 47 48 46 46 46 47 48 46 44 47 47 44 37 36 32 38 42 40 41 46 54 56 55 59 58 59 60 59 60 59 52
81 76 68 65 67 73 70 72 70 64 61 57 59 56 56 51 51 51 48 49 50 50 52 51 51 51 52 50 50 47 46 44 39 36 40 45 50 55 56 56 59 61 58 59 60 60 64 62 62
82 84 74 75 70 73 77 76 72 64 62 64 64 61 60 57 55 57 53 52 51 52 52 53 54 56 58 54 52 50 49 42 39 40 44 55 53 52 56 57 58 58 57 60 64 65 64 64 67
93 89 82 80 76 76 80 86 80 69 69 66 66 68 63 58 58 59 58 56 52 55 55 55 59 61 60 59 55 55 50 47 43 47 56 56 56 53 50 57 62 59 62 65 63 66 63 68 81
94 96 86 82 87 81 89 83 90 72 67 70 68 73 68 67 63 64 64 63 57 56 57 58 59 61 59 57 56 58 58 56 56 55 57 58 59 53 57 65 66 65 66 63 62 61 67 78 88
97 100 89 89 89 96 100 90 89 84 78 74 78 71 72 72 69 69 66 65 62 62 63 62 62 64 63 62 63 60 58 58 60 61 60 62 62 60 65 67 66 67 66 62 59 68 77 85 88
95 88 81 74 90 103 102 94 96 88 84 79 84 83 79 71 71 70 73 66 64 66 72 68 68 68 64 67 64 59 59 60 61 62 64 60 58 61 64 67 69 62 59 57 68 79 83 90 90
103 93 102 96 84 89 103 100 104 97 90 86 86 79 75 77 67 67 68 73 69 72 71 71 67 64 65 68 68 67 62 65 61 54 53 59 66 67 66 62 58 53 56 64 77 81 87 90 86
108 105 99 100 103 99 85 92 101 100 91 92 95 91 88 84 76 70 71 75 73 73 70 65 66 65 70 72 70 69 71 72 67 66 69 65 70 68 65 54 49 55 68 72 78 84 86 84 82
111 115 107 101 92 97 106 100 88 89 99 102 99 96 91 92 91 84 78 76 66 70 75 71 69 71 67 65 66 65 66 64 71 72 65 70 69 61 63 61 64 71 72 76 81 84 83 81 81
112 116 115 113 109 102 101 101 110 97 88 85 91 90 92 99 97 85 81 82 83 76 72 75 77 67 63 67 56 57 66 75 70 61 66 69 65 67 62 63 69 70 75 82 82 81 80 76 76
114 114 113 111 114 122 114 106 100 102 106 102 95 90 92 97 102 96 90 84 87 81 81 73 76 69 60 56 59 60 69 70 62 64 68 68 64 58 61 65 72 78 82 81 81 79 76 74 73
112 115 118 118 121 122 129 111 108 107 108 108 106 105 102 101 102 98 93 93 92 93 90 89 76 75 79 78 77 80 71 63 62 75 75 70 62 68 71 76 77 76 79 81 82 77 73 72 72
107 110 120 121 127 128 130 117 113 118 116 109 105 106 109 111 107 106 103 100 99 91 88 88 81 77 77 72 62 65 55 71 78 75 68 65 63 68 77 79 80 76 77 81 75 71 70 72 72
104 106 107 116 125 126 127 117 106 111 120 120 119 115 112 116 110 108 105 101 99 97 95 91 88 90 90 85 83 84 84 76 77 68 64 64 72 76 79 82 76 78 78 77 67 69 73 74 72
102 104 108 112 114 118 122 121 117 113 116 118 122 120 113 98 94 104 113 112 110 102 98 94 92 95 98 95 89 89 81 77 77 73 67 68 72 76 81 73 76 77 76 73 71 72 73 72 73
99 104 108 110 114 115 119 113 115 121 126 124 121 118 116 109 103 104 111 110 101 101 104 106 103 103 98 95 89 77 80 80 82 80 77 75 73 69 73 73 75 76 74 74 75 77 71 71 76
101 104 105 108 110 114 119 113 111 111 113 121 127 125 120 119 115 106 104 105 103 106 106 100 98 94 91 87 86 84 82 81 80 77 71 69 66 72 71 72 71 70 72 74 80 77 72 76 71
90 100 108 110 111 113 118 112 113 111 114 113 116 119 117 118 118 116 113 106 96 98 103 102 98 92 83 75 73 75 77 76 73 71 67 66 68 71 72 71 71 71 74 76 80 78 74 76 67
94 97 100 101 109 115 112 117 105 113 113 116 118 121 121 120 117 116 113 112 109 106 101 97 92 83 74 71 71 73 70 68 69 69 68 67 69 70 67 69 68 72 75 83 83 80 75 70 63
90 94 98 102 104 107 104 117 103 111 113 118 121 121 122 120 117 115 113 113 111 107 101 99 96 86 81 78 79 77 71 70 70 73 73 74 72 75 75 74 74 77 78 78 83 77 75 67 59
90 92 94 96 101 103 108 106 94 101 110 116 118 118 117 119 117 115 113 111 113 111 105 99 97 91 90 83 80 81 82 78 78 76 79 80 78 79 75 73 76 82 84 77 78 73 71 61 53
93 95 95 94 96 96 101 96 98 97 104 105 108 113 117 116 116 114 112 110 106 108 109 105 99 95 93 93 92 94 93 89 82 82 83 81 77 74 75 77 84 77 75 74 71 72 66 57 47
87 87 89 85 86 89 95 94 91 91 95 99 103 103 103 104 110 112 113 109 104 102 102 103 96 92 90 92 98 97 93 90 87 86 78 78 77 79 85 83 78 71 71 69 68 65 57 49 48
78 79 83 78 74 79 82 85 84 83 86 95 95 96 99 99 98 96 99 103 103 101 98 99 95 86 84 84 85 84 81 77 76 75 77 79 80 80 78 74 68 68 68 66 62 55 51 46 47
62 58 65 67 67 66 68 70 73 73 78 82 83 84 87 88 95 94 87 86 86 87 90 93 95 88 82 82 81 81 76 74 73 72 72 71 70 69 67 66 64 64 62 59 54 52 46 46 47
46 51 51 54 57 57 57 54 56 59 65 61 66 73 78 79 80 81 79 73 73 71 72 77 82 79 77 77 78 75 73 71 70 69 66 62 61 62 61 60 58 58 54 49 51 46 43 47 48
Wind_Direction
233 236 231 239 244 246 244 240 244 243 250 255 256 256 261 263 262 255 258 261 259 259 263 265 269 273 279 281 284 285 284 287 287 294 278 286 289 310 314 317 314 311 314 313 314 314 313 313 311
235 234 240 240 242 244 245 244 241 248 253 254 257 257 258 263 265 265 263 266 269 271 274 275 273 282 295 307 302 292 299 297 295 295 276 286 292 310 315 313 313 310 316 316 317 313 314 313 311
241 235 236 234 238 243 244 244 247 250 251 251 250 251 253 257 262 266 266 268 272 277 279 283 279 280 277 286 296 299 296 298 297 295 281 285 298 309 317 315 314 313 312 316 316 313 313 313 310
236 240 234 234 238 243 244 245 246 247 251 250 252 253 256 264 263 262 263 266 273 279 282 285 283 282 282 283 288 289 296 302 304 297 288 288 300 313 310 311 311 312 311 315 313 313 311 309 301
231 235 238 235 240 243 244 247 247 247 250 248 251 251 253 256 260 260 260 264 270 274 279 282 283 284 284 282 285 291 295 296 297 291 285 297 303 307 309 310 312 311 315 314 312 310 309 305 301
231 228 232 234 238 246 247 247 245 248 251 254 247 248 255 258 255 256 259 263 267 271 275 276 280 284 285 284 285 286 291 296 298 290 286 301 309 308 307 312 311 314 313 310 309 310 308 308 307
232 231 233 233 236 234 244 244 240 242 248 248 248 247 251 252 253 253 261 264 266 267 272 274 277 277 281 284 286 288 292 296 297 287 299 303 307 305 305 313 309 312 312 310 310 309 308 308 313
234 235 233 232 235 239 240 236 240 241 244 246 251 249 246 254 249 252 259 263 260 264 263 261 267 272 276 280 281 285 290 293 295 293 298 302 305 302 306 309 311 311 312 312 308 304 308 311 316
227 233 237 235 235 237 241 241 241 242 242 248 246 254 249 249 247 252 256 259 257 259 261 266 271 274 277 280 280 283 289 290 293 297 297 302 303 302 304 306 308 309 310 310 304 306 312 315 320
226 223 226 231 232 234 239 242 245 246 243 248 247 247 253 250 254 257 258 252 261 265 264 267 275 277 278 281 279 281 284 292 294 295 292 299 302 302 305 307 309 310 310 305 305 311 317 318 318
228 227 229 230 232 234 237 238 244 245 244 246 248 249 251 248 251 255 257 257 258 259 260 266 273 273 276 277 276 278 282 287 294 295 293 295 304 307 308 309 309 309 305 305 310 316 317 316 319
229 229 228 231 234 235 238 240 245 245 244 244 248 247 252 252 249 252 253 257 262 266 262 262 267 272 279 278 279 281 283 286 292 289 289 297 304 307 305 305 306 297 304 309 313 315 317 319 319
229 231 230 227 232 234 235 236 236 243 243 242 244 250 253 254 249 253 247 251 256 265 263 260 262 273 276 279 277 280 280 285 290 290 290 300 302 304 300 297 301 303 306 309 313 316 316 317 316
231 230 231 231 230 235 234 234 237 239 243 240 244 244 246 248 249 244 247 248 254 257 266 262 267 271 273 276 271 273 281 288 288 284 291 294 297 297 299 298 304 307 307 310 314 316 316 315 316
233 230 233 235 238 236 236 236 236 236 238 238 241 244 244 246 251 251 251 254 257 256 257 261 267 264 265 266 267 273 283 289 280 285 291 294 297 292 286 293 305 306 308 311 314 315 314 313 313
234 233 233 236 236 238 240 233 238 237 238 241 241 242 247 248 249 247 248 252 256 259 258 258 258 262 268 271 270 273 279 282 273 289 293 295 287 287 287 297 302 306 308 311 313 313 311 311 314
234 235 234 238 239 239 241 240 245 242 238 241 242 245 248 250 254 255 254 255 255 255 258 258 257 259 265 269 266 272 271 278 284 287 287 288 280 286 293 299 303 301 305 310 310 310 308 310 315
238 236 237 239 242 241 241 240 240 248 247 246 246 247 247 253 248 252 254 254 255 256 256 255 257 261 265 267 266 271 277 278 279 283 286 279 285 288 290 295 296 300 305 309 307 309 307 309 315
238 238 238 239 240 243 243 239 241 240 247 249 248 249 251 256 254 257 258 259 257 255 256 257 258 259 263 267 269 269 272 272 275 277 277 277 280 285 290 290 293 299 304 306 310 308 309 311 315
241 241 240 240 240 242 244 239 239 242 243 246 247 248 249 251 249 251 255 255 256 258 258 258 257 259 261 263 267 270 270 269 270 271 274 281 284 283 286 288 292 297 302 303 309 310 311 312 315
245 242 243 244 242 242 243 243 241 242 242 244 245 247 249 250 249 249 252 257 257 256 257 258 257 258 260 262 263 265 266 267 268 272 279 282 280 282 285 287 292 297 299 305 312 310 313 315 312
244 245 244 245 244 244 244 240 242 242 242 242 244 246 246 246 247 249 251 247 246 254 256 257 257 259 257 257 260 260 263 269 273 275 281 282 281 284 287 289 292 294 299 304 310 309 311 313 311
247 247 246 246 247 246 247 246 240 244 243 243 242 242 243 244 244 246 248 251 249 250 254 255 259 260 261 263 266 265 264 267 271 276 281 282 281 286 291 288 291 295 298 302 307 307 310 310 308
251 250 250 248 247 247 246 248 241 244 243 243 243 244 245 245 246 247 247 247 251 252 253 252 257 259 260 262 263 264 262 265 272 278 280 280 281 285 287 287 289 293 298 302 306 304 309 307 305
253 252 250 250 250 249 248 247 245 243 243 245 245 246 244 246 246 245 246 246 248 252 254 253 254 258 257 256 257 256 258 267 274 277 278 278 280 282 281 285 290 295 299 298 301 303 305 304 304
256 256 253 253 254 254 254 250 249 246 246 246 246 245 244 245 245 246 245 245 245 248 252 253 254 253 253 255 256 259 263 266 270 274 274 276 279 278 282 286 293 293 296 297 299 301 300 301 301
259 261 261 258 256 255 256 257 252 248 246 245 246 245 247 246 243 244 246 246 245 246 248 252 250 253 255 254 255 260 263 264 266 269 267 270 272 277 283 286 289 291 293 295 297 298 299 299 298
266 263 264 262 256 253 252 251 251 247 243 245 243 243 243 244 245 242 244 245 246 245 246 250 254 251 251 253 256 258 261 264 264 264 266 269 272 276 280 283 287 289 292 294 295 297 299 296 297
271 261 258 256 255 251 248 246 248 246 244 242 243 242 242 241 242 241 239 240 244 246 246 247 250 251 250 251 253 254 257 258 261 264 266 269 273 277 279 283 285 288 289 291 294 300 296 294 298
266 266 260 257 255 255 252 252 248 246 246 244 240 240 239 238 240 241 241 239 239 240 242 243 248 249 252 253 254 255 255 256 258 261 265 270 273 277 279 280 284 284 288 293 295 294 291 295 294
Height
10912 10918 10925 10929 10932 10932 10930 10929 10935 10935 10940 10948 10952 10956 10956 10956 10960 10961 10962 10960 10963 10964 10966 10967 10967 10967 10967 10965 10963 10960 10959 10959 10958 10954 10952 10950 10949 10947 10945 10941 10938 10935 10933 10930 10926 10921 10916 10912 10908
10902 10907 10915 10920 10924 10922 10918 10922 10920 10928 10935 10942 10947 10951 10951 10951 10953 10953 10955 10954 10956 10957 10960 10960 10961 10962 10960 10958 10957 10957 10956 10955 10953 10949 10948 10945 10944 10941 10939 10935 10931 10928 10924 10921 10916 10911 10908 10903 10899
10888 10896 10905 10913 10914 10905 10907 10909 10915 10920 10928 10931 10937 10941 10944 10945 10946 10947 10947 10945 10948 10951 10954 10954 10954 10954 10954 10952 10951 10950 10950 10947 10947 10946 10943 10940 10938 10935 10932 10929 10924 10919 10916 10913 10906 10902 10898 10893 10889
10872 10883 10894 10904 10901 10894 10895 10901 10902 10912 10919 10923 10926 10932 10938 10937 10940 10939 10938 10939 10941 10943 10945 10947 10947 10947 10947 10946 10945 10944 10944 10944 10942 10940 10938 10937 10933 10929 10926 10922 10918 10913 10908 10903 10899 10894 10890 10884 10879
10862 10870 10882 10890 10889 10882 10887 10887 10891 10901 10909 10914 10916 10920 10927 10931 10932 10929 10932 10933 10935 10936 10937 10938 10938 10939 10939 10939 10939 10937 10937 10938 10938 10937 10935 10933 10930 10925 10920 10915 10910 10905 10899 10894 10887 10884 10881 10875 10871
10849 10858 10872 10878 10879 10875 10877 10874 10883 10894 10897 10899 10904 10909 10916 10923 10924 10919 10923 10926 10929 10929 10930 10931 10931 10930 10930 10930 10930 10930 10931 10930 10930 10929 10927 10925 10922 10919 10915 10910 10904 10899 10894 10887 10879 10876 10871 10865 10859
10832 10846 10860 10866 10869 10868 10856 10860 10866 10881 10886 10886 10893 10897 10904 10911 10916 10913 10915 10919 10922 10921 10922 10923 10923 10921 10922 10923 10923 10922 10922 10923 10924 10922 10920 10918 10915 10911 10907 10902 10898 10891 10886 10880 10873 10867 10862 10855 10847
10820 10830 10845 10857 10859 10855 10828 10846 10854 10864 10871 10874 10881 10882 10896 10899 10903 10904 10908 10911 10913 10914 10913 10914 10914 10912 10915 10916 10914 10912 10914 10914 10915 10914 10912 10909 10907 10904 10901 10895 10889 10883 10877 10871 10865 10860 10856 10847 10836
10806 10824 10832 10839 10839 10831 10813 10835 10843 10845 10861 10866 10866 10872 10884 10890 10893 10895 10897 10900 10902 10906 10906 10905 10904 10906 10907 10907 10905 10906 10907 10905 10905 10904 10902 10899 10897 10896 10893 10887 10880 10875 10869 10863 10857 10852 10846 10837 10828
10793 10811 10814 10812 10816 10816 10806 10827 10822 10834 10850 10854 10850 10860 10868 10880 10883 10884 10886 10891 10893 10893 10892 10896 10896 10898 10898 10895 10897 10899 10897 10896 10897 10896 10894 10890 10888 10887 10884 10878 10872 10867 10860 10855 10850 10842 10834 10827 10820
10778 10796 10790 10795 10799 10800 10802 10815 10799 10817 10836 10841 10840 10846 10856 10866 10871 10872 10873 10880 10881 10883 10887 10887 10886 10887 10885 10884 10888 10888 10887 10889 10888 10887 10884 10881 10878 10876 10874 10870 10864 10858 10854 10847 10839 10831 10825 10818 10810
10760 10772 10775 10779 10784 10790 10792 10793 10798 10796 10821 10827 10824 10834 10840 10847 10854 10855 10863 10868 10867 10870 10875 10876 10873 10876 10877 10877 10878 10876 10878 10880 10881 10878 10876 10873 10869 10868 10865 10861 10857 10851 10846 10838 10830 10823 10815 10808 10800
10743 10747 10759 10766 10768 10772 10771 10779 10783 10784 10807 10807 10811 10815 10822 10827 10836 10841 10847 10857 10859 10858 10858 10863 10863 10869 10872 10867 10867 10867 10868 10871 10870 10868 10866 10864 10861 10859 10858 10854 10850 10843 10836 10829 10823 10816 10807 10799 10791
10717 10728 10739 10743 10746 10745 10748 10757 10760 10788 10782 10786 10795 10801 10806 10806 10810 10826 10835 10845 10850 10854 10846 10847 10853 10859 10863 10859 10852 10855 10858 10859 10860 10859 10858 10855 10852 10850 10849 10846 10840 10833 10825 10820 10815 10807 10798 10791 10782
10698 10711 10720 10727 10724 10722 10720 10739 10762 10763 10762 10770 10778 10783 10784 10788 10796 10811 10822 10827 10828 10840 10843 10840 10843 10848 10854 10853 10851 10848 10847 10849 10851 10850 10849 10846 10844 10838 10837 10835 10831 10825 10817 10810 10806 10798 10789 10782 10774
10679 10690 10698 10696 10695 10694 10690 10744 10748 10742 10743 10749 10765 10773 10769 10773 10777 10791 10805 10811 10815 10823 10829 10832 10837 10838 10840 10843 10846 10846 10843 10845 10843 10842 10839 10838 10835 10830 10827 10825 10824 10819 10808 10803 10795 10789 10781 10772 10764
10656 10668 10678 10672 10670 10675 10684 10732 10723 10723 10729 10740 10750 10761 10756 10756 10762 10773 10785 10793 10802 10809 10813 10819 10824 10825 10827 10831 10833 10831 10834 10837 10832 10833 10832 10830 10826 10822 10816 10813 10813 10811 10804 10795 10788 10780 10772 10765 10755
10638 10651 10655 10654 10648 10658 10672 10709 10709 10704 10710 10727 10734 10742 10748 10737 10755 10759 10763 10771 10780 10791 10799 10809 10813 10814 10814 10821 10824 10825 10823 10822 10824 10825 10823 10821 10817 10814 10808 10805 10802 10798 10794 10788 10781 10773 10765 10757 10748
10615 10623 10627 10628 10628 10633 10646 10679 10689 10690 10689 10701 10710 10716 10726 10722 10728 10733 10743 10749 10758 10768 10781 10792 10798 10801 10800 10808 10809 10812 10811 10809 10815 10817 10817 10813 10811 10809 10800 10796 10793 10788 10783 10778 10773 10766 10756 10748 10740
10593 10597 10601 10604 10610 10617 10614 10650 10665 10668 10676 10675 10685 10692 10700 10705 10703 10708 10715 10726 10733 10741 10755 10768 10777 10782 10788 10791 10793 10797 10794 10800 10800 10802 10805 10805 10803 10797 10792 10790 10785 10780 10774 10768 10763 10755 10748 10739 10730
10568 10573 10578 10580 10589 10592 10593 10624 10642 10646 10650 10652 10659 10668 10678 10684 10690 10691 10693 10701 10709 10721 10730 10744 10757 10768 10773 10779 10780 10785 10781 10784 10787 10790 10791 10788 10790 10782 10782 10781 10776 10771 10765 10759 10752 10746 10737 10728 10720
10542 10543 10550 10556 10561 10566 10564 10599 10604 10614 10623 10631 10633 10637 10648 10658 10665 10673 10670 10680 10689 10698 10708 10724 10737 10748 10757 10762 10767 10764 10763 10771 10772 10777 10776 10776 10773 10768 10770 10769 10765 10760 10755 10748 10744 10736 10727 10718 10709
10521 10521 10525 10531 10535 10538 10553 10552 10599 10590 10601 10603 10607 10603 10612 10625 10636 10648 10658 10657 10671 10685 10692 10709 10722 10736 10744 10750 10750 10749 10752 10756 10761 10765 10766 10766 10761 10756 10758 10755 10752 10748 10742 10737 10732 10726 10718 10708 10700
10493 10496 10500 10505 10507 10511 10525 10509 10576 10565 10568 10560 10570 10588 10593 10606 10621 10633 10642 10649 10649 10660 10676 10691 10706 10723 10732 10738 10741 10738 10740 10742 10750 10753 10754 10751 10750 10749 10746 10743 10740 10736 10732 10725 10719 10714 10707 10699 10691
10463 10467 10473 10478 10480 10490 10482 10501 10542 10533 10528 10540 10552 10561 10574 10582 10596 10610 10622 10634 10645 10645 10656 10675 10692 10707 10716 10723 10726 10724 10727 10730 10738 10741 10739 10739 10739 10739 10735 10733 10730 10726 10721 10714 10708 10701 10696 10690 10682
10437 10438 10445 10456 10457 10463 10456 10484 10494 10510 10507 10518 10524 10532 10544 10559 10568 10581 10596 10611 10627 10635 10638 10655 10671 10685 10693 10701 10707 10708 10712 10719 10725 10729 10722 10724 10726 10723 10722 10722 10719 10714 10709 10702 10697 10691 10685 10679 10673
10422 10422 10420 10428 10435 10438 10435 10446 10464 10476 10481 10487 10495 10506 10517 10531 10545 10558 10572 10588 10607 10620 10627 10630 10653 10667 10676 10682 10687 10693 10695 10706 10713 10714 10711 10710 10712 10712 10712 10711 10708 10702 10698 10691 10687 10680 10673 10667 10663
10395 10398 10394 10394 10403 10407 10414 10416 10427 10443 10454 10449 10463 10478 10489 10504 10516 10535 10552 10567 10585 10600 10614 10617 10631 10652 10659 10668 10674 10679 10682 10691 10696 10697 10697 10698 10701 10701 10701 10698 10695 10691 10686 10681 10676 10669 10663 10658 10653
10368 10374 10371 10370 10373 10378 10385 10395 10401 10413 10418 10429 10443 10456 10468 10483 10491 10509 10531 10548 10566 10584 10598 10606 10610 10628 10644 10653 10659 10664 10672 10680 10681 10682 10683 10686 10688 10688 10687 10685 10682 10679 10675 10670 10663 10658 10652 10648 10643
10355 10350 10353 10356 10358 10361 10367 10383 10388 10394 10399 10414 10425 10433 10444 10461 10478 10496 10514 10536 10553 10566 10578 10587 10594 10610 10625 10636 10642 10651 10658 10664 10667 10668 10672 10674 10676 10675 10674 10672 10671 10666 10664 10660 10654 10648 10643 10639 10634